Location: Oberwangen
(47.4286°N, 8.9679°E)
Time: 06:48:36
(UTC+00:00)

USA 229 DEB - Visible Passes

Search period start: 26 October 2021 00:00
Search period end: 05 November 2021 00:00
Orbit: 953 x 1259 km, 63.4° (Epoch: 24 October)

Date Brightness Start Highest point End Pass type
(mag) Time Alt. Az. Time Alt. Az. Time Alt. Az.
26 Oct 6.1 02:16:24 12° SSE 02:16:24 12° SSE 02:16:52 10° SSE visible
26 Oct 3.5 17:47:41 10° SSW 17:54:05 82° SE 18:00:30 12° NE visible
26 Oct 5.0 19:39:54 10° W 19:45:46 33° NNW 19:47:57 28° N visible
26 Oct 6.1 21:33:50 10° NW 21:35:24 15° NW 21:35:24 15° NW visible
27 Oct 3.7 17:03:13 10° SSW 17:09:23 55° ESE 17:15:59 10° NE visible
27 Oct 4.6 18:54:24 10° WSW 19:00:33 43° NW 19:04:44 21° NNE visible
27 Oct 5.7 20:48:14 10° WNW 20:52:10 21° NNW 20:52:10 21° NNW visible
28 Oct 4.1 18:09:08 10° WSW 18:15:28 58° NW 18:21:27 14° NE visible
28 Oct 5.4 20:02:32 10° WNW 20:07:56 25° NNW 20:08:53 24° N visible
28 Oct 6.3 21:55:58 10° NW 21:56:19 11° NW 21:56:19 11° NW visible
29 Oct 3.7 17:24:08 10° SW 17:30:33 81° NW 17:37:28 10° NE visible
29 Oct 5.2 19:16:50 10° W 19:22:32 29° NNW 19:25:33 22° NNE visible
29 Oct 6.0 21:10:40 10° NW 21:13:00 17° NNW 21:13:00 17° NNW visible
30 Oct 3.6 16:39:26 10° SSW 16:45:45 70° SE 16:52:33 10° NE visible
30 Oct 4.8 18:31:15 10° W 18:37:14 37° NNW 18:42:11 16° NNE visible
30 Oct 5.6 20:25:11 10° NW 20:29:37 21° NNW 20:29:37 21° NNW visible
31 Oct 4.4 17:45:50 10° WSW 17:52:04 48° NW 17:58:48 10° NE visible
31 Oct 5.4 19:39:32 10° WNW 19:44:47 23° NNW 19:46:13 22° N visible
31 Oct 6.2 21:32:38 10° NW 21:33:39 14° NNW 21:33:39 14° NNW visible
01 Nov 4.0 17:00:40 10° SW 17:07:04 66° NW 17:13:57 10° NE visible
01 Nov 5.3 18:53:49 10° WNW 18:59:20 26° NNW 19:02:47 18° NNE visible
01 Nov 5.8 20:47:27 10° NW 20:50:13 19° NNW 20:50:13 19° NNW visible
02 Nov 5.0 18:08:09 10° W 18:13:58 32° NNW 18:19:21 13° NNE visible
02 Nov 5.5 20:02:04 10° NW 20:06:47 21° N 20:06:47 21° N visible
02 Nov 6.4 21:54:09 10° NW 21:54:12 10° NW 21:54:12 10° NW visible
03 Nov 4.7 17:22:37 10° WSW 17:28:44 40° NW 17:35:17 10° NE visible
03 Nov 5.4 19:16:30 10° WNW 19:21:40 22° N 19:23:19 20° NNE visible
03 Nov 6.1 21:09:13 10° NW 21:10:45 16° NNW 21:10:45 16° NNW visible
04 Nov 4.3 16:37:18 10° WSW 16:43:37 54° NW 16:50:26 10° NE visible
04 Nov 5.3 18:30:49 10° WNW 18:36:10 24° NNW 18:39:51 16° NNE visible
04 Nov 5.7 20:24:09 10° NW 20:27:17 20° NNW 20:27:17 20° NNW visible
